Wind_Speed
18 17 17 16 15 15 13 14 14 15 16 17 15 14 13 13 8 8 13 16 14 19 7 15 14 16 11 22 6 4 11 18 22 24 21 13 9 4 2 12 4 5 4 15 26
18 18 17 14 14 13 13 14 14 15 16 15 14 12 8 3 5 13 12 16 18 17 9 2 18 13 6 29 9 10 17 26 16 19 19 15 17 12 9 12 5 7 9 26 25
19 18 16 15 12 13 14 13 14 14 15 13 11 4 3 3 3 3 14 13 17 12 15 6 13 11 10 23 13 13 20 15 14 16 17 18 13 9 11 13 13 18 20 24 24
19 17 16 14 12 13 13 13 13 14 11 9 4 7 3 9 1 4 9 15 10 10 12 15 11 11 8 16 18 19 17 12 15 14 17 18 14 10 16 4 9 18 21 22 19
17 16 14 13 12 12 11 10 10 10 9 5 1 6 2 5 4 3 7 8 5 2 6 17 10 13 4 18 26 19 20 10 9 10 14 16 14 12 11 3 14 20 21 21 18
16 15 14 13 11 10 9 7 6 8 6 4 6 2 2 7 3 1 7 7 10 9 10 11 8 6 4 23 25 19 17 10 6 12 11 15 9 9 4 10 18 20 20 19 19
15 15 14 13 11 9 6 3 3 4 1 1 8 1 7 5 4 3 7 7 7 5 7 14 11 7 4 14 15 23 18 12 8 14 8 14 9 9 10 15 17 18 17 18 18
14 14 13 13 11 7 3 3 7 6 6 5 6 1 3 3 2 2 3 2 5 4 4 7 11 6 2 9 9 23 20 18 8 14 6 16 19 6 12 17 18 18 15 16 17
14 13 13 13 7 6 5 10 11 10 7 5 1 2 3 2 6 5 2 5 5 3 4 14 8 4 3 3 9 21 21 24 8 7 9 14 16 11 12 15 17 17 17 16 16
15 14 12 10 8 4 10 11 13 12 5 2 5 2 2 5 6 4 3 5 5 3 7 5 5 3 2 6 9 14 26 23 19 10 12 13 9 13 11 15 17 17 17 16 16
15 15 10 6 7 6 12 7 3 4 12 6 6 5 3 11 1 4 5 2 4 1 2 3 2 4 5 12 18 27 28 23 15 4 16 14 11 13 11 10 12 13 14 15 16
16 15 9 1 7 5 7 3 3 2 5 7 5 1 8 7 2 3 4 1 2 5 10 5 2 2 5 19 20 22 29 23 10 6 7 9 10 9 9 12 14 16 16 16 16
17 15 8 3 1 7 7 6 5 4 3 4 2 3 4 8 4 3 4 2 1 9 12 10 5 5 8 17 18 16 26 22 19 11 7 16 6 7 8 9 9 12 14 15 19
17 18 8 5 0 3 4 4 3 2 2 10 6 3 3 4 1 3 3 2 3 15 17 9 8 10 7 18 26 19 15 18 16 18 11 6 9 7 8 10 13 12 13 16 17
24 19 7 4 5 2 2 3 2 1 4 14 6 8 5 2 2 2 3 3 1 5 4 2 9 11 13 13 12 11 11 15 14 15 10 8 4 11 10 9 12 16 17 15 14
24 22 10 4 6 3 2 2 2 1 10 9 7 10 6 6 3 4 4 5 6 11 18 7 4 4 6 4 1 11 11 14 9 7 7 3 5 10 10 11 13 13 12 10 16
3 26 22 11 2 3 2 2 2 7 8 11 6 10 7 9 7 5 4 9 3 6 7 11 5 3 3 13 6 8 15 3 3 3 9 1 4 3 11 9 10 15 15 17 15
6 7 22 16 3 1 1 1 11 2 3 5 6 10 6 9 7 11 6 9 16 8 8 5 8 6 3 8 11 18 13 7 7 8 10 2 8 5 1 1 1 6 16 8 12
4 1 13 16 4 2 1 9 2 4 5 8 9 1 5 5 5 4 8 5 6 9 4 6 6 2 3 1 6 10 11 7 6 3 5 9 4 4 3 2 3 5 10 9 5
3 2 6 15 8 3 7 7 2 2 6 3 4 5 4 9 4 5 7 5 7 6 8 3 6 2 2 1 3 9 11 8 5 8 7 8 16 9 11 13 10 8 9 6 4
1 1 16 10 9 8 6 5 1 2 3 3 4 2 3 4 3 4 5 2 5 8 8 5 4 8 2 1 11 7 9 2 5 3 8 6 9 14 14 16 16 12 7 5 4
2 4 19 7 5 4 4 3 1 2 3 2 1 2 2 3 2 2 4 2 8 4 2 3 1 11 7 1 2 2 7 10 9 7 2 5 5 1 1 5 8 9 6 5 4
3 2 12 8 4 3 3 3 3 2 2 1 1 3 2 2 1 1 1 2 4 2 2 5 2 7 1 3 3 4 3 2 1 2 11 7 5 2 3 5 4 7 7 6 5
2 4 5 6 4 4 4 2 1 2 2 1 1 2 1 1 2 1 2 0 4 4 4 3 1 2 8 2 1 5 5 5 4 9 12 13 9 4 9 10 9 9 8 7 6
5 2 1 4 5 4 2 1 2 1 1 2 1 4 1 2 1 1 1 3 1 10 4 2 2 3 3 2 0 3 7 11 12 14 10 13 8 8 9 15 13 10 9 9 8
2 2 2 3 1 1 2 1 1 2 1 1 3 3 0 0 1 1 3 2 1 5 5 5 2 1 2 1 2 5 9 9 13 9 15 6 12 2 1 9 13 12 12 10 9
3 2 0 1 1 1 0 3 3 3 3 2 2 2 0 2 2 3 2 3 5 3 3 4 2 3 2 2 2 7 18 17 10 11 11 13 12 8 7 12 14 14 13 11 10
Wind_Direction
324 324 324 319 321 320 319 315 310 310 313 308 306 294 297 291 260 236 251 250 238 233 258 218 229 208 256 187 166 218 202 199 193 193 191 166 160 130 120 144 158 150 140 139 149
331 332 325 322 319 321 315 308 311 311 307 303 304 298 285 236 224 270 272 262 227 221 206 217 220 214 236 186 189 182 207 200 187 191 184 177 196 150 156 153 139 135 128 140 148
337 338 334 332 329 316 313 315 319 312 307 318 315 287 224 188 244 325 321 276 223 214 217 278 291 217 238 185 159 204 207 190 182 194 175 170 186 171 168 187 181 173 152 150 151
343 340 337 335 328 320 319 324 319 315 326 322 316 325 300 172 304 311 340 7 202 191 181 226 245 177 215 195 178 182 204 180 176 181 177 171 152 165 184 134 169 151 156 150 155
344 343 341 336 333 327 328 330 326 322 329 328 9 68 74 114 57 3 22 37 75 174 184 207 190 177 234 193 180 187 190 196 175 169 185 151 173 169 171 117 144 146 156 157 157
345 342 340 339 340 339 340 342 345 336 333 327 160 43 343 77 305 301 38 36 73 125 206 263 182 106 192 187 181 189 174 172 164 167 163 170 162 162 144 141 143 152 162 159 160
350 346 341 340 340 341 345 356 353 352 16 304 159 318 63 46 336 247 16 18 36 144 137 214 152 139 108 167 171 170 169 172 168 171 158 154 139 188 144 149 146 156 156 157 163
353 353 348 339 336 343 356 84 113 100 79 112 162 299 84 339 68 129 338 14 43 113 130 86 106 119 106 281 138 164 167 173 159 169 162 189 191 149 156 153 156 159 160 158 163
354 350 346 339 338 354 100 121 113 117 106 118 123 305 103 359 351 2 6 5 30 84 57 77 63 66 8 296 115 170 167 177 153 190 159 201 182 150 172 168 164 167 166 162 162
358 357 347 341 351 72 120 123 117 114 101 60 35 189 50 12 336 354 38 23 58 102 96 53 60 73 23 241 158 159 163 174 167 173 182 176 138 148 174 179 177 172 171 167 166
354 355 355 347 352 141 138 123 153 97 54 73 330 293 352 332 234 29 12 10 107 40 93 134 119 215 215 303 151 165 161 167 153 163 171 178 147 157 168 185 174 178 170 170 170
360 1 6 28 14 148 171 76 49 97 127 52 352 319 12 341 346 8 3 53 53 115 125 133 130 112 350 277 153 175 166 166 119 126 133 155 125 129 173 199 190 180 176 173 166
7 2 7 163 42 76 78 106 133 125 78 44 51 353 354 339 19 318 343 88 110 154 162 114 91 118 244 181 141 167 165 158 152 135 103 141 121 168 186 206 203 194 183 179 174
12 10 18 155 195 84 78 110 142 125 112 13 10 36 316 350 81 272 306 296 263 106 105 92 153 178 234 138 153 159 161 165 146 164 167 229 171 188 176 201 204 193 180 180 187
28 20 51 140 133 61 63 131 160 198 38 335 351 312 293 319 156 348 306 268 23 35 147 115 184 148 158 153 172 141 162 143 163 166 150 190 196 157 167 200 200 190 176 189 195
38 34 51 46 60 32 120 137 214 282 27 351 330 356 20 26 38 16 306 203 249 96 92 117 177 133 110 130 112 151 129 110 123 161 196 158 256 172 180 192 183 175 172 188 203
346 31 41 42 359 310 174 163 74 54 337 345 339 350 358 1 12 9 61 55 51 99 106 138 86 96 194 113 133 182 149 78 137 63 195 169 220 38 175 188 193 170 170 197 203
226 8 23 28 16 140 217 94 60 267 306 340 317 323 53 12 40 20 43 39 21 54 110 89 135 152 153 158 165 170 157 166 153 179 195 110 219 185 59 359 192 190 193 174 192
184 286 16 3 40 108 23 55 69 309 318 325 303 41 30 26 12 353 45 37 16 7 42 123 135 325 350 220 178 175 189 136 105 43 168 197 209 222 166 201 198 141 148 128 106
172 130 26 1 45 97 66 93 93 296 318 313 35 13 34 353 11 26 31 360 341 4 3 21 122 144 126 140 60 214 147 163 148 159 196 196 219 213 196 199 190 180 165 136 104
359 55 1 7 58 56 71 80 70 342 330 332 344 5 27 350 44 34 5 57 358 327 328 284 198 166 203 276 171 156 191 168 154 198 194 188 222 215 209 199 187 172 158 144 130
43 46 344 57 49 46 76 101 101 24 347 342 339 351 349 49 23 138 150 293 349 290 324 359 19 170 169 70 340 12 194 207 201 188 209 215 219 359 73 145 164 154 145 124 118
49 330 356 26 75 62 99 99 59 101 57 24 24 355 340 329 171 198 192 147 353 35 14 332 117 139 169 195 185 224 148 166 78 129 208 213 203 133 149 173 152 164 163 157 148
74 12 21 48 37 94 132 71 108 43 79 144 335 218 276 296 359 158 181 130 327 340 291 258 69 272 198 162 161 192 182 178 228 228 225 234 255 194 204 205 191 179 176 171 163
19 99 311 3 39 73 73 132 94 335 348 336 35 33 250 181 299 118 9 313 182 355 350 19 103 332 332 4 282 201 193 191 210 233 224 240 213 243 208 202 195 185 175 171 165
82 150 87 111 156 238 342 126 118 174 215 24 100 330 30 195 248 304 334 22 73 336 12 336 130 145 232 222 336 293 265 241 228 228 245 255 233 88 47 160 178 186 181 181 174
88 104 217 325 123 222 151 174 166 166 191 188 155 187 62 349 291 320 299 313 316 345 31 360 151 160 223 159 289 256 228 220 224 228 226 224 226 166 179 197 196 184 187 185 175
Height
786 783 781 779 777 776 774 772 770 768 766 764 762 760 760 760 759 761 759 758 758 760 758 760 760 761 764 761 765 762 759 754 759 766 764 768 770 775 777 780 784 787 783 789 802
783 781 778 776 775 772 771 769 768 766 764 761 758 756 755 756 757 755 755 753 754 757 759 761 758 760 753 752 763 764 755 747 749 753 756 765 762 775 777 782 788 790 790 796 803
782 779 776 774 771 770 769 767 767 765 762 759 757 755 754 755 756 754 753 747 749 754 756 759 757 759 762 745 752 758 751 746 755 750 752 761 765 769 769 780 776 783 791 798 803
781 777 775 772 768 767 766 766 765 762 760 758 757 755 753 754 757 756 752 749 748 752 758 762 759 756 755 744 745 753 751 753 750 752 755 761 763 769 767 768 768 779 791 798 803
779 776 773 769 766 765 764 763 762 761 760 759 758 757 756 754 756 756 754 753 749 746 753 759 754 749 752 747 747 751 753 756 753 756 755 758 763 764 770 773 773 782 792 798 804
777 774 771 768 765 764 762 760 759 759 758 758 758 758 756 755 756 756 756 755 755 754 755 753 751 754 757 751 744 749 755 755 755 757 758 759 767 766 777 775 779 785 792 798 804
775 773 770 767 763 761 759 758 756 756 757 757 757 757 755 759 757 757 757 752 753 755 755 759 749 751 766 748 746 750 759 756 758 756 761 756 774 772 775 777 782 790 796 800 805
773 770 767 764 761 759 756 754 754 754 755 756 757 757 755 757 757 758 758 757 754 750 751 750 753 757 768 764 751 755 753 761 759 756 763 755 767 777 779 778 787 792 797 801 806
771 768 765 761 758 755 754 753 752 754 756 757 758 757 756 758 757 758 757 755 754 753 750 750 755 763 762 749 756 750 756 754 764 757 760 759 757 775 781 779 788 792 795 800 806
769 766 762 759 756 755 755 754 755 755 757 758 760 761 761 763 762 759 760 757 755 755 752 755 763 766 773 756 752 761 749 750 753 762 758 763 766 778 784 781 787 793 795 800 805
767 764 760 757 754 754 756 757 759 757 761 770 772 768 765 766 764 762 761 761 758 759 758 761 753 756 764 757 738 738 738 746 751 763 757 761 770 778 786 790 792 795 794 800 804
766 762 758 756 753 753 755 756 759 760 767 773 772 769 771 770 765 763 765 763 764 758 757 760 759 769 772 766 740 733 739 748 761 763 760 772 774 778 788 788 784 790 795 799 804
765 761 757 756 754 754 756 760 758 760 759 775 776 775 776 774 770 765 765 765 768 756 745 743 765 774 780 743 744 739 738 750 755 765 763 767 787 789 790 788 788 791 793 796 799
764 759 756 756 757 756 759 761 762 764 756 778 776 778 777 776 770 768 767 766 759 743 748 762 771 769 762 739 744 748 742 745 761 757 769 771 774 782 789 791 791 794 796 795 799
764 760 757 755 756 757 762 762 763 765 738 783 782 780 776 776 773 768 768 764 757 741 742 765 764 760 752 748 742 752 750 749 754 755 764 769 765 764 784 793 789 787 792 795 797
766 762 759 758 758 761 760 762 763 745 756 787 787 784 771 772 772 774 769 766 756 748 755 762 753 750 751 753 749 754 751 756 762 766 781 778 772 766 774 770 776 783 790 792 794
766 763 759 759 762 760 759 762 743 768 793 793 795 789 782 784 775 770 767 766 756 749 760 751 754 753 750 755 759 754 753 785 789 795 787 791 780 763 764 767 767 780 785 790 791
765 765 763 761 760 760 760 753 766 811 807 803 796 784 782 789 775 770 769 769 769 755 747 754 769 754 752 747 753 754 754 777 794 796 782 792 777 758 779 783 785 781 777 781 787
761 763 763 762 760 760 758 784 819 819 817 811 797 772 772 786 784 771 786 793 794 790 762 756 762 763 762 757 751 758 762 758 778 786 778 770 774 772 783 784 785 787 784 793 799
761 761 763 759 758 760 771 809 819 819 820 815 795 803 782 799 778 782 787 800 799 792 786 762 761 762 761 759 758 753 759 770 764 790 789 776 770 761 774 773 781 787 788 797 802
762 758 763 758 759 768 800 815 820 821 822 818 810 805 812 810 805 800 800 803 801 795 789 781 751 763 761 761 752 760 757 760 757 762 770 771 765 745 753 758 770 780 793 799 803
763 765 766 761 771 800 812 820 823 822 821 817 816 815 810 810 802 800 798 800 800 800 791 782 756 757 756 767 765 762 749 750 756 771 767 755 746 777 774 772 774 790 800 805 806
778 777 769 763 785 811 819 820 823 820 822 819 815 816 813 807 796 799 800 801 801 799 797 787 762 766 768 766 767 760 762 764 763 758 758 761 744 784 786 787 792 794 801 804 806
782 789 785 793 815 809 813 820 817 823 823 822 820 816 810 803 805 797 795 801 803 800 795 789 769 755 746 750 755 757 761 761 757 754 747 749 740 765 776 781 790 794 798 801 804
796 814 822 808 815 827 825 835 824 822 825 822 817 821 819 805 800 799 801 796 797 801 795 784 775 774 768 770 767 762 756 758 756 748 754 741 752 742 755 769 781 790 798 802 805
800 807 824 833 838 825 822 830 823 825 829 820 821 826 830 818 815 809 818 806 806 801 804 802 786 782 769 772 769 763 756 757 755 755 747 753 750 762 777 773 783 789 795 798 802
805 809 808 827 825 814 813 820 818 822 824 820 823 823 824 822 823 822 821 820 821 817 808 809 793 784 764 774 777 766 752 752 749 748 745 750 739 767 776 778 778 784 791 794 800